Regional Weather Roundup
Issued by NWS Goodland, KS

Home | Current Version | Previous Version | Text Only | Print | Product List | Glossary Off
Versions: 1 2 3 4 5 6 7 8 9 10 11 12 13 14 15 16 17 18 19 20 21 22 23 24 25 26 27 28 29 30 31 32 33 34 35 36 37 38 39 40 41 42 43 44 45 46 47 48 49 50

000
ASUS43 KGLD 282008
RWRGLD

GOODLAND FORECAST AREA HOURLY WEATHER ROUNDUP
NATIONAL WEATHER SERVICE GOODLAND KS
200 PM MDT THU MAY 28 2015

...OFFICIAL OBSERVATIONS...

CITY           SKY/WX    TMP DP  RH WIND       PRES   REMARKS
GOODLAND KS    PTSUNNY   75  59  57 S13       29.94F
HILL CITY KS   PTSUNNY   75  59  57 S12G24    29.97F
IMPERIAL NEB   PTSUNNY   71  59  65 SE6       29.95F
MCCOOK NEB     CLOUDY    75  60  59 S13       29.95F
AKRON CO       MOSUNNY   72  51  47 E7        29.97F
BURLINGTON CO  MOSUNNY   75  57  53 SE14G20   29.93F
LIMON CO       TSTM      61  50  67 N13       29.99F
$$

...UNOFFICIAL OBSERVATIONS...

CITY           SKY/WX    TMP DP  RH WIND       PRES   REMARKS
COLBY KS       PTSUNNY   73  64  73 SE20      29.96F
LENORA KS        N/A     75  32  20 MISG        N/A
NORTON KS      CLOUDY    75  54  46 S17       29.95F
SHARON SPRINGS   N/A     68  62  80 MISG        N/A
$$



USA.gov is the U.S. government's official web portal to all federal, state and local government web resources and services.